Weather History for KFDK - February, 2013

Change the Weather History Date:

Friday, February 1, 2013

  Actual Average (KHGR) Record (KHGR)
Temperature  
Mean Temperature 24 °F 32 °F  
Max Temperature 30 °F 39 °F 62 °F (2002)
Min Temperature 17 °F 24 °F 5 °F (2004)
Degree Days  
Heating Degree Days 42 33  
Month to date heating degree days 33  
Since 1 July heating degree days 3057  
Cooling Degree Days 0 0  
Month to date cooling degree days 0  
Year to date cooling degree days 0  
Moisture  
Dew Point 14 °F    
Average Humidity 62    
Maximum Humidity 100    
Minimum Humidity 43    
Precipitation  
Precipitation 0.00 in 0.08 in 0.97 in (2008)
Month to date precipitation 0.08  
Year to date precipitation 2.76  
Sea Level Pressure  
Sea Level Pressure 30.11 in    
Wind  
Wind Speed 9 mph (West)    
Max Wind Speed 25 mph    
Max Gust Speed 34 mph    
Visibility 10 miles    
Events Snow    
T = Trace of Precipitation, MM = Missing Value Source: NWS Daily Summary

Daily Weather History Graph

Daily Weather History Graph

Search for Another Location

Airport or City:

Trip Planner

Search our weather history database for the weather conditions in past years. The results will help you decide how hot, cold, wet, or windy it might be!

Date:

Astronomy

Feb. 01, 2013 Rise Set
Actual Time 7:16 AM EST 5:30 PM EST
Civil Twilight 6:48 AM EST 5:58 PM EST
Nautical Twilight 6:16 AM EST 6:30 PM EST
Astronomical Twilight 5:44 AM EST 7:02 PM EST
Moon 11:33 PM EST (2/1) 9:50 AM EST (2/1)
Length of Visible Light 11h 10m
Length of Day
10h 13m
Waning Gibbous, 70% of the Moon is Illuminated
Feb 1
Waning Gibbous
Feb 3
Last Quarter
Feb 10
New
Feb 17
First Quarter
Feb 25
Full

Hourly Weather History & Observations

Time (EST) Temp. Windchill Dew Point Humidity Pressure Visibility Wind Dir Wind Speed Gust Speed Precip Events Conditions
12:15 AM 28.4 °F 21.2 °F 17.6 °F 64% 29.90 in 10.0 mi SW 6.9 mph - N/A   Scattered Clouds
12:35 AM 26.6 °F 19.1 °F 19.4 °F 74% 29.89 in 10.0 mi SW 6.9 mph - N/A   Scattered Clouds
1:00 AM 28.4 °F 21.2 °F 19.4 °F 69% 29.89 in 10.0 mi SW 6.9 mph - N/A   Clear
1:20 AM 26.6 °F 18.2 °F 19.4 °F 74% 29.89 in 10.0 mi SW 8.1 mph - N/A   Clear
1:40 AM 28.4 °F 23.3 °F 19.4 °F 69% 29.89 in 10.0 mi SSW 4.6 mph - N/A   Clear
2:00 AM 28.4 °F 22.2 °F 19.4 °F 69% 29.89 in 10.0 mi SSW 5.8 mph - N/A   Scattered Clouds
2:25 AM 30.2 °F 25.4 °F 21.2 °F 69% 29.89 in 10.0 mi SSW 4.6 mph - N/A   Overcast
2:45 AM 30.2 °F 26.7 °F 21.2 °F 69% 29.88 in 10.0 mi SE 3.5 mph - N/A   Overcast
3:05 AM 30.2 °F - 21.2 °F 69% 29.88 in 10.0 mi Calm Calm - N/A   Overcast
3:25 AM 30.2 °F 26.7 °F 19.4 °F 64% 29.87 in 10.0 mi South 3.5 mph - N/A   Overcast
3:50 AM 30.2 °F 25.4 °F 21.2 °F 69% 29.86 in 10.0 mi WSW 4.6 mph - N/A   Overcast
4:10 AM 30.2 °F - 21.2 °F 69% 29.86 in 10.0 mi Calm Calm - N/A   Overcast
4:30 AM 30.2 °F 24.3 °F 21.2 °F 69% 29.86 in 10.0 mi NW 5.8 mph - N/A   Overcast
4:50 AM 30.2 °F 21.9 °F 23.0 °F 75% 29.87 in 10.0 mi NW 9.2 mph - N/A   Overcast
5:15 AM 30.2 °F 21.9 °F 26.6 °F 86% 29.88 in 10.0 mi NW 9.2 mph - N/A   Overcast
5:35 AM 28.4 °F 20.4 °F 26.6 °F 93% 29.89 in 5.0 mi NW 8.1 mph - N/A Snow Light Snow
5:50 AM 28.4 °F 19.7 °F 28.4 °F 100% 29.90 in 3.0 mi WNW 9.2 mph - N/A Snow Light Snow
7:55 AM 24.8 °F 12.4 °F 15.8 °F 69% 29.99 in 10.0 mi NW 15.0 mph 26.5 mph N/A   Scattered Clouds
8:55 AM 26.6 °F 12.4 °F 12.2 °F 55% 30.05 in 10.0 mi WNW 21.9 mph 33.4 mph N/A   Scattered Clouds
9:55 AM 26.6 °F 13.4 °F 10.4 °F 51% 30.09 in 10.0 mi NW 18.4 mph 28.8 mph N/A   Scattered Clouds
10:55 AM 26.6 °F 11.4 °F 10.4 °F 51% 30.13 in 10.0 mi WNW 25.3 mph 34.5 mph N/A   Scattered Clouds
11:50 AM 28.4 °F 16.2 °F 10.4 °F 47% 30.15 in 10.0 mi WNW 17.3 mph 34.5 mph N/A   Scattered Clouds
11:55 AM 26.6 °F 11.4 °F 10.4 °F 51% 30.13 in 10.0 mi WNW 25.3 mph 34.5 mph N/A   Scattered Clouds
12:48 PM 28.4 °F 16.2 °F 8.6 °F 43% 30.16 in 10.0 mi WNW 17.3 mph 28.8 mph N/A   Mostly Cloudy
1:59 PM 28.4 °F 16.2 °F 8.6 °F 43% 30.18 in 10.0 mi WNW 17.3 mph 32.2 mph N/A   Mostly Cloudy
2:45 PM 26.6 °F 12.7 °F 8.6 °F 47% 30.19 in 10.0 mi WNW 20.7 mph 31.1 mph N/A   Mostly Cloudy
3:45 PM 26.6 °F 15.7 °F 8.6 °F 47% 30.23 in 10.0 mi NW 12.7 mph 17.3 mph N/A   Mostly Cloudy
4:45 PM 24.8 °F 11.5 °F 6.8 °F 46% 30.26 in 10.0 mi WNW 17.3 mph 28.8 mph N/A   Mostly Cloudy
5:45 PM 21.2 °F 5.6 °F 5.0 °F 50% 30.28 in 10.0 mi WNW 20.7 mph 28.8 mph N/A   Mostly Cloudy
6:45 PM 21.2 °F 8.9 °F 6.8 °F 54% 30.12 in 10.0 mi WNW 12.7 mph 18.4 mph N/A   Scattered Clouds
7:50 PM 19.4 °F 7.2 °F 6.8 °F 58% 30.34 in 10.0 mi NW 11.5 mph 18.4 mph N/A   Scattered Clouds
8:05 PM 21.2 °F 10.9 °F 6.8 °F 54% 30.35 in 10.0 mi WNW 9.2 mph 19.6 mph N/A   Clear
8:30 PM 21.2 °F 11.7 °F 5.0 °F 50% 30.37 in 10.0 mi West 8.1 mph - N/A   Scattered Clouds
8:50 PM 21.2 °F 12.6 °F 5.0 °F 50% 30.37 in 10.0 mi WNW 6.9 mph 16.1 mph N/A Snow Light Snow
9:10 PM 19.4 °F 6.0 °F 5.0 °F 54% 30.37 in 10.0 mi WNW 13.8 mph 17.3 mph N/A   Scattered Clouds
9:30 PM 19.4 °F 6.6 °F 5.0 °F 54% 30.37 in 10.0 mi WNW 12.7 mph 17.3 mph N/A Snow Light Snow
9:55 PM 19.4 °F 7.9 °F 6.8 °F 58% 30.38 in 10.0 mi West 10.4 mph - N/A   Clear
10:15 PM 19.4 °F 9.5 °F 8.6 °F 63% 30.38 in 10.0 mi West 8.1 mph - N/A   Clear
10:35 PM 19.4 °F 8.6 °F 8.6 °F 63% 30.39 in 10.0 mi West 9.2 mph - N/A   Clear
10:55 PM 19.4 °F 8.6 °F 6.8 °F 58% 30.40 in 10.0 mi WNW 9.2 mph - N/A   Clear
11:20 PM 17.6 °F 5.7 °F 8.6 °F 68% 30.40 in 10.0 mi West 10.4 mph - N/A   Clear
11:40 PM 17.6 °F 8.2 °F 6.8 °F 63% 30.40 in 10.0 mi West 6.9 mph - N/A   Clear